Location: Friedrichshafen
(47.6598°N, 9.4819°E)
Time: 04:32:15
(UTC+02:00)

ISS - Pass Details

Date: 14 November 2017
Orbit: 402 x 409 km, 51.6° (Epoch: 21 August)

Event Time Altitude Azimuth Distance (km) Brightness Sun altitude
Exits shadow 05:45:33 47° 254° (WSW) 542 -3.6 -16.9°
Maximum altitude 05:46:08 57° 210° (SSW) 481 -3.7 -16.8°
Drops below altitude 10° 05:49:19 10° 131° (SE) 1,450 -0.1 -16.2°
Sets 05:51:24 0° 127° (SE) 2,307 1.2 -15.9°
